Temp
12 13 12 12 12 12 12 11 11 11 11 11 11 12 12 11 11 11 12 13 15 16 17 18 18 18 19 19 19 20 20 19 19 19 19 20 22 22 23 23 23 23 23 23 23 23 22 22 23 22 23 23 20 20 21 19 19 23 25 24 22 22 22 23 22 22 23 25 23 19 19 22 23 20 19 18 19 20 19 20 18 16 14 14 14 14 14 15
12 12 12 11 12 12 12 11 11 11 11 11 11 12 11 11 11 11 12 13 15 16 17 18 18 18 19 19 19 20 20 19 19 18 19 22 22 22 23 23 22 23 23 23 23 23 23 22 21 21 23 23 20 21 22 20 20 23 23 23 23 23 23 22 23 22 22 25 23 20 19 21 23 21 20 21 22 20 21 21 19 20 18 14 13 14 14 15
12 12 12 11 12 12 11 11 11 11 11 11 11 11 11 11 11 11 11 13 15 16 17 18 18 18 19 19 19 20 20 19 19 19 21 22 22 22 22 23 22 22 23 23 23 23 24 23 22 22 23 23 21 21 23 22 21 22 22 25 25 24 23 20 21 22 20 22 23 21 18 19 21 20 20 22 22 21 22 23 21 22 22 19 14 12 14 15
12 12 12 12 12 11 11 11 11 11 11 11 11 11 11 10 10 11 12 14 15 16 17 18 18 18 19 19 20 20 20 19 20 21 23 23 23 23 22 22 22 22 23 23 23 23 24 23 22 23 24 23 21 21 23 22 22 22 22 26 24 21 23 21 19 20 19 19 22 21 18 20 20 19 20 21 22 22 23 23 23 24 24 21 14 11 14 14
12 12 11 12 12 11 11 11 11 11 11 11 11 11 10 10 10 11 12 14 15 16 17 17 18 18 19 20 20 20 20 20 21 22 22 23 23 23 23 22 22 22 23 23 23 23 23 22 22 23 24 23 22 23 23 20 20 23 22 23 21 19 23 21 17 18 17 18 20 20 21 21 19 19 20 21 23 24 23 23 23 23 23 20 14 12 14 14
12 11 11 12 11 11 11 11 11 11 11 11 11 11 10 10 10 11 12 14 15 16 17 17 18 19 20 20 20 20 20 21 20 20 21 22 23 22 22 22 22 22 22 23 22 22 23 22 23 24 23 22 22 23 22 19 19 24 22 19 18 18 22 19 16 17 16 19 22 21 21 20 21 22 19 20 23 23 21 19 18 18 17 15 13 13 14 14
12 11 12 12 11 11 11 11 11 11 11 11 11 10 10 10 10 11 12 14 15 16 17 17 18 19 20 19 19 19 19 20 20 19 20 20 21 22 22 22 22 22 22 23 22 22 23 23 23 23 23 23 22 21 21 20 20 24 24 20 18 17 19 17 16 16 16 21 21 18 20 20 23 22 17 19 22 22 18 13 12 13 13 12 13 13 14 14
11 11 12 11 11 11 11 11 11 11 11 10 10 10 9 9 10 11 13 14 15 16 17 17 18 19 20 19 19 19 19 20 20 19 19 19 20 21 21 22 22 22 22 23 22 22 23 23 23 21 23 23 22 22 20 21 22 24 24 20 18 17 17 16 15 17 17 19 17 18 21 21 21 19 18 21 23 21 16 12 12 12 12 13 14 14 13 14
11 11 11 11 11 11 11 11 11 11 10 10 10 10 10 9 10 12 13 14 15 16 17 17 18 19 20 19 18 19 19 20 20 20 20 20 20 20 21 21 22 22 22 22 22 23 22 23 22 22 23 22 21 22 20 23 24 23 22 19 19 18 17 16 17 18 17 17 17 20 22 20 17 17 21 23 22 19 14 14 15 14 15 16 15 14 13 14
11 11 11 11 11 11 11 11 11 11 10 10 10 9 10 10 10 11 13 14 15 17 17 18 18 18 19 19 18 19 19 20 20 20 20 20 20 20 21 21 22 22 22 21 21 22 23 23 21 21 22 21 21 20 19 22 22 20 19 19 19 18 17 17 19 18 18 18 18 22 22 19 17 18 24 23 18 15 15 17 15 16 19 17 15 14 13 14
11 11 11 11 11 11 10 11 10 10 10 10 9 10 10 9 10 10 12 14 16 17 18 18 18 18 19 19 19 19 19 20 20 20 20 20 20 20 20 21 22 22 22 20 21 22 23 22 19 20 23 22 21 19 19 20 20 19 20 21 19 18 18 18 20 19 19 20 18 21 22 20 18 20 24 21 16 15 18 19 15 17 19 16 15 14 13 13
11 11 11 11 11 11 10 10 10 10 10 10 10 10 10 9 9 10 12 14 16 17 18 18 18 18 18 18 19 20 20 19 19 19 19 19 20 20 20 21 21 22 22 21 21 22 23 22 21 22 23 22 21 21 20 18 18 19 20 23 21 20 21 19 19 18 19 21 17 19 22 21 21 22 22 18 15 16 18 20 18 18 17 14 14 13 13 13
11 11 11 11 10 10 10 10 10 10 10 10 9 9 9 10 10 11 13 14 16 17 18 18 17 18 19 19 19 20 20 19 19 19 19 19 19 20 20 21 21 21 22 22 22 22 22 22 23 22 21 21 21 20 20 18 18 20 20 22 22 22 22 19 18 18 20 20 16 19 22 23 23 22 20 16 15 18 20 21 20 18 17 15 13 13 13 12
11 11 11 10 10 10 10 10 10 10 10 9 9 9 9 10 11 11 13 14 16 17 17 17 17 18 19 19 19 19 19 19 19 19 19 19 19 20 20 20 21 21 22 22 22 22 21 22 22 21 19 20 20 18 20 19 19 21 20 20 20 21 22 19 17 18 21 19 17 21 22 23 25 22 19 15 15 19 21 22 21 19 18 16 15 13 13 12
10 10 10 10 10 10 10 10 10 10 10 9 9 9 10 11 12 12 13 14 15 17 17 17 17 18 19 20 19 18 19 19 19 19 19 19 20 19 19 20 20 21 21 22 22 21 21 23 22 21 19 18 19 20 21 21 20 20 20 20 19 19 22 20 17 17 21 19 17 21 22 23 24 22 19 14 15 18 21 22 21 20 19 18 17 15 15 13
10 10 10 10 10 10 10 10 10 10 9 9 9 9 10 12 12 13 14 14 15 16 16 16 16 18 19 19 18 18 18 19 19 19 19 20 20 20 19 20 20 20 21 21 21 21 21 22 20 18 19 19 20 22 21 20 20 19 20 21 19 19 21 21 18 16 17 19 19 20 22 23 23 21 18 14 15 18 20 21 21 21 20 19 18 16 16 15
10 10 10 10 10 10 9 9 9 9 9 9 9 10 11 12 13 14 14 15 15 16 16 16 16 18 19 18 18 18 18 18 19 19 19 20 20 21 20 19 18 18 20 20 21 21 20 20 18 17 19 19 20 22 21 20 20 19 19 20 18 18 20 20 20 17 15 19 20 20 20 23 23 22 20 17 16 18 20 22 22 21 20 19 18 17 17 16
10 10 10 10 10 9 9 9 9 9 9 9 9 11 12 13 13 14 14 14 15 15 16 16 17 18 19 18 18 18 17 17 18 19 19 20 20 21 21 19 17 18 20 20 21 21 19 18 18 20 20 18 19 22 21 20 20 20 20 20 19 18 18 20 21 17 16 19 20 20 20 21 22 21 21 19 16 18 20 20 20 19 19 19 17 17 17 16
11 10 10 10 10 9 9 9 9 9 9 9 10 11 12 13 14 14 13 14 16 17 17 17 17 18 18 18 17 16 17 17 18 19 19 19 20 20 21 20 18 20 21 21 21 20 19 20 19 20 20 19 20 22 22 21 22 21 20 21 21 20 19 19 19 16 15 19 20 20 20 20 21 21 21 19 17 18 19 18 18 18 18 18 17 17 17 17
10 10 10 10 10 9 9 9 9 9 8 9 10 11 13 14 15 15 13 14 15 15 16 17 17 17 17 17 16 16 17 18 18 18 18 19 20 20 19 19 20 21 20 20 21 18 18 21 20 20 20 20 20 20 20 20 20 20 20 20 20 20 20 18 18 15 14 19 20 18 19 19 19 20 20 19 17 17 18 19 19 19 19 19 19 19 18 18
10 10 10 10 9 9 9 9 9 8 9 9 10 12 15 16 15 15 14 15 13 9 13 16 15 16 17 16 16 17 18 18 18 18 18 19 20 21 19 19 20 20 18 18 19 18 18 20 20 20 20 19 18 18 19 19 18 20 20 20 19 19 20 18 17 16 14 18 20 16 18 20 19 20 19 18 18 19 20 21 22 22 21 19 19 19 19 18
11 10 10 10 9 9 9 9 8 8 9 9 9 10 12 14 15 16 16 17 14 9 12 14 14 16 15 15 16 17 18 19 18 17 18 18 20 20 19 19 20 19 17 17 19 19 19 20 20 18 16 16 16 17 19 20 19 19 19 20 20 18 19 17 16 16 14 18 20 17 18 21 20 19 19 19 20 21 20 21 22 22 22 20 19 19 18 18
11 10 10 10 9 9 9 9 8 8 9 9 8 8 11 14 15 17 17 18 16 13 13 15 16 17 16 16 16 17 19 19 18 18 17 18 19 19 19 19 19 18 17 19 20 19 19 19 18 15 15 18 17 17 19 19 19 19 19 20 20 18 19 20 18 16 14 16 17 18 19 21 21 20 21 19 16 17 18 17 17 17 18 19 18 18 17 18
11 10 10 10 9 9 9 9 8 8 8 8 9 10 12 14 15 17 18 17 17 15 14 15 15 17 17 17 17 18 19 18 18 18 17 19 19 18 19 19 18 18 18 18 19 19 20 16 13 14 17 19 18 17 19 20 19 18 19 21 21 19 19 19 18 16 16 15 15 18 20 21 21 22 24 20 14 17 17 17 18 17 15 15 15 16 15 16
11 10 10 9 9 9 9 9 8 8 8 8 10 12 12 13 15 17 18 17 17 16 15 14 15 17 18 17 17 18 19 18 17 17 16 18 19 18 18 17 18 19 17 17 18 19 19 13 12 15 17 18 19 19 19 20 20 19 19 20 21 21 20 18 17 18 19 19 15 16 20 22 21 22 25 22 19 21 20 18 22 22 17 16 17 17 15 14
11 10 10 9 9 9 9 9 8 8 8 8 11 12 12 14 15 16 18 16 17 16 15 16 16 17 18 17 17 17 19 19 16 14 15 17 18 18 18 17 17 18 16 17 18 18 16 12 13 17 17 18 19 19 18 18 20 20 18 18 18 19 20 19 19 19 20 20 15 14 19 21 21 23 25 22 21 23 22 21 24 24 20 18 18 19 17 16
11 10 10 9 9 9 9 8 8 8 9 10 12 12 12 14 14 16 17 15 16 16 15 15 16 18 18 16 16 18 19 18 15 15 15 17 17 18 19 17 17 17 15 17 19 17 14 13 14 16 17 18 19 19 18 17 20 20 15 15 18 19 20 20 20 20 19 18 16 15 18 20 20 22 20 18 21 24 24 25 26 24 21 19 18 17 16 15
11 10 9 9 9 9 10 9 7 8 10 12 13 13 13 14 15 17 17 15 15 16 16 15 16 17 16 14 16 18 17 17 18 16 14 16 17 18 20 18 18 18 15 17 20 16 14 16 16 17 17 18 18 17 16 17 21 18 12 13 17 18 19 19 20 20 17 17 19 18 17 19 20 21 18 17 21 24 25 26 26 24 22 21 19 17 15 14
10 10 9 9 9 9 11 10 9 9 11 13 13 13 13 14 16 18 16 15 16 16 16 16 16 16 15 15 16 16 15 16 18 16 14 16 17 17 19 17 17 17 14 17 19 16 14 14 14 17 19 18 15 12 12 17 20 14 10 12 15 15 17 17 19 20 18 18 21 18 16 19 20 21 21 19 21 23 25 24 23 22 21 20 19 18 16 14
10 10 9 8 8 9 10 10 10 11 11 12 13 12 13 15 17 17 14 15 18 16 14 15 15 15 15 16 16 15 16 15 15 15 15 17 17 16 16 15 16 17 16 17 17 15 12 11 12 14 16 14 12 10 10 13 14 12 13 16 17 17 17 17 17 18 19 19 19 15 14 17 19 21 22 21 21 22 24 23 23 22 22 21 20 19 17 16
10 9 9 8 9 9 10 10 10 11 11 12 13 12 14 16 16 15 14 16 18 15 13 14 14 14 15 16 16 15 15 14 14 16 16 17 17 17 16 16 17 17 17 17 16 14 13 13 14 13 11 11 13 13 11 10 11 13 18 19 19 19 18 18 18 18 19 20 17 13 12 15 19 20 22 21 21 20 20 22 23 23 22 22 21 19 16 15
10 9 9 9 9 10 11 11 11 11 11 12 12 12 15 15 14 15 15 17 18 15 14 15 13 13 14 16 16 14 15 15 15 16 16 16 16 17 17 18 18 17 17 17 16 16 16 15 14 13 10 11 16 16 13 13 13 15 18 19 19 19 18 19 18 17 18 18 15 12 12 16 18 19 21 22 23 20 17 19 21 21 22 22 22 20 17 15
9 9 8 8 9 10 12 12 12 11 10 11 12 14 16 14 14 16 15 16 17 14 14 15 13 13 14 15 15 14 15 15 15 15 15 16 16 16 17 17 17 18 17 16 16 17 17 16 14 15 14 12 16 18 16 15 16 16 18 19 20 18 17 18 17 15 17 17 13 11 13 17 18 20 20 21 23 21 17 18 19 18 19 20 18 16 17 18
9 9 8 9 9 10 11 12 12 11 10 10 13 15 15 14 15 16 15 15 14 12 13 14 13 13 14 15 14 14 16 15 14 15 15 15 16 16 16 16 16 18 17 16 16 17 18 17 15 16 15 13 15 16 16 16 16 16 16 18 19 19 19 19 18 18 18 16 14 13 16 20 21 20 19 19 19 18 17 16 14 15 15 14 13 14 18 20
9 9 8 9 9 10 10 11 12 11 10 10 14 15 14 14 15 16 15 14 13 12 13 13 13 14 14 14 14 14 16 15 13 15 15 15 16 15 17 16 15 17 18 17 16 16 17 18 15 12 12 13 15 15 15 17 17 15 14 17 19 19 19 17 14 15 16 16 15 15 17 18 19 20 18 17 17 17 18 16 15 17 16 13 16 19 20 21
9 8 8 8 9 9 10 11 11 10 10 12 14 14 14 15 16 16 15 14 13 12 13 13 13 14 13 14 14 14 15 14 13 14 15 15 16 15 16 17 15 16 18 18 17 16 17 16 13 12 11 12 13 13 14 16 18 16 15 17 16 15 17 16 12 11 12 17 18 15 17 18 18 21 21 19 19 19 19 19 19 20 18 18 20 21 21 21
8 8 8 8 9 9 9 10 10 9 10 12 14 13 15 16 15 15 15 14 13 13 14 14 14 14 14 13 13 14 15 15 13 14 15 15 16 16 16 17 16 16 18 19 17 16 17 16 13 13 14 12 9 11 13 13 14 17 17 17 15 14 17 18 17 15 14 17 18 15 17 19 19 21 22 21 22 23 22 21 21 20 19 20 20 20 20 21
9 9 8 8 9 9 9 9 9 9 10 12 13 14 15 15 13 13 14 13 13 14 15 15 14 14 14 14 13 13 14 15 14 14 15 15 16 17 16 16 16 16 16 17 18 17 18 18 14 11 13 13 10 13 16 13 12 15 16 15 16 17 18 18 18 18 17 17 18 16 15 16 18 20 22 23 23 24 24 22 21 21 21 21 20 20 21 21
9 8 8 9 9 9 9 9 9 9 10 12 13 14 14 14 12 11 12 13 15 15 16 15 14 14 13 14 14 13 14 15 13 14 15 15 16 16 16 17 16 15 15 17 18 17 16 18 16 11 12 13 13 15 17 15 13 13 14 14 16 18 18 18 17 18 19 18 17 18 17 18 18 17 20 24 24 24 24 23 22 21 21 20 19 21 21 20
9 9 9 9 9 9 9 9 9 9 10 12 13 13 13 13 11 9 10 12 15 15 15 15 14 14 13 13 13 13 14 14 13 14 16 15 16 16 15 17 16 14 15 17 17 16 16 18 17 13 12 13 15 15 15 16 15 15 16 16 16 16 16 17 16 15 18 19 17 18 19 20 19 16 19 23 23 22 22 23 21 19 19 20 18 20 21 20
9 9 9 9 9 9 9 9 9 10 11 12 13 13 12 12 11 11 10 11 13 13 14 15 15 14 14 13 14 14 13 13 13 14 15 15 16 17 16 16 16 14 15 16 17 17 17 17 16 13 12 14 15 13 12 14 15 16 17 16 16 16 16 18 17 14 15 17 17 17 18 21 20 17 19 21 21 19 18 19 20 18 17 18 17 18 17 18
9 9 9 9 9 9 9 10 10 10 11 11 12 12 12 11 11 12 11 11 13 13 13 14 14 14 14 14 14 14 14 14 13 13 15 15 16 17 15 15 15 15 16 17 17 16 15 15 15 13 13 13 13 10 8 10 13 15 16 16 16 17 17 19 19 15 14 14 14 14 16 20 19 15 16 18 17 16 15 16 20 19 16 15 16 15 14 14
9 9 8 9 9 9 10 10 9 10 10 10 10 10 10 11 11 11 11 12 13 13 13 14 14 14 15 14 13 13 14 14 13 14 15 15 15 16 15 14 15 15 16 17 17 15 14 16 16 14 13 13 12 11 9 9 12 15 15 14 15 16 16 18 17 15 15 15 14 15 16 19 19 15 14 15 14 14 15 14 18 21 19 16 16 15 14 15
8 8 8 8 9 9 10 10 10 10 9 9 10 10 10 10 11 11 12 13 13 13 14 15 14 14 14 14 14 14 14 15 15 14 14 15 14 13 13 14 15 16 17 17 17 16 16 18 16 14 14 14 14 13 13 12 13 14 14 13 14 15 15 15 14 15 16 16 16 17 18 19 19 16 16 16 16 17 18 15 16 19 19 16 16 15 16 16
7 8 8 7 8 9 10 10 10 10 9 9 11 11 10 10 10 10 12 12 11 12 14 14 12 13 14 14 14 14 14 16 16 14 14 14 14 12 12 13 15 16 17 16 17 17 17 17 16 16 15 15 15 15 15 15 13 12 13 12 13 15 15 16 16 16 17 15 15 18 19 19 18 18 19 19 19 20 20 17 15 15 15 15 16 17 17 17
7 7 8 7 7 8 8 8 10 10 9 10 10 10 11 11 10 10 11 12 11 11 13 12 11 13 14 14 14 14 14 14 14 14 14 14 14 12 10 11 13 15 15 16 16 16 16 16 16 17 17 17 17 17 16 16 14 13 13 13 13 14 15 16 16 16 17 14 14 17 19 18 18 19 20 20 20 20 20 20 18 17 16 15 16 16 16 16
6 7 7 7 7 8 7 8 9 9 9 10 10 10 11 11 11 10 11 11 11 11 12 12 12 14 14 14 14 14 14 13 13 14 14 13 12 11 9 10 12 13 14 15 15 16 17 16 16 17 17 17 18 17 15 16 16 15 14 13 13 13 14 16 16 17 17 15 15 16 17 17 18 19 21 21 20 20 21 23 22 19 18 17 16 15 16 17
6 6 6 7 7 7 7 8 8 9 9 10 10 10 11 11 11 11 11 10 10 11 12 12 12 13 14 14 15 14 13 13 13 13 13 12 12 11 11 12 12 12 13 14 15 15 17 17 16 16 16 16 17 15 15 16 16 15 14 13 13 13 14 15 16 17 16 16 17 18 17 17 17 18 20 21 21 22 22 21 19 18 18 17 15 16 17 18
5 5 5 6 7 7 7 7 8 8 9 10 10 10 10 11 11 11 11 10 11 11 12 13 13 13 12 13 15 14 13 13 14 13 12 12 12 12 13 13 12 11 13 14 14 14 16 17 15 15 16 15 15 14 14 15 16 14 13 13 13 13 14 15 15 16 16 16 18 17 16 17 17 17 19 20 20 21 19 17 17 18 18 17 17 18 18 19
5 6 5 6 6 6 7 7 7 8 8 9 9 9 10 11 11 11 11 11 12 11 11 13 13 12 11 12 14 14 14 14 15 14 12 12 12 12 13 14 13 11 12 14 14 13 15 16 14 14 15 15 14 14 13 14 15 15 13 12 12 12 13 14 15 15 15 15 16 16 15 16 16 16 18 19 19 19 17 17 18 19 19 18 18 19 19 20
4 4 5 6 7 6 6 6 7 8 8 8 9 9 9 10 11 11 11 11 12 12 11 12 12 11 11 11 13 13 13 13 14 14 12 13 13 13 14 14 13 12 12 13 13 14 14 14 13 14 15 15 14 14 12 12 13 14 13 12 11 12 13 13 14 15 15 15 15 14 14 15 15 17 18 17 17 17 17 17 18 18 18 19 19 19 19 19
4 4 5 7 7 6 6 6 6 7 8 8 8 9 9 9 10 11 11 11 11 12 11 12 12 12 11 11 12 13 12 12 12 12 11 11 12 12 12 12 12 13 13 12 13 13 13 14 14 14 15 14 12 11 12 12 13 13 14 13 12 12 12 13 13 14 14 15 15 14 15 17 16 17 18 17 16 17 17 17 17 17 17 17 17 17 17 16
Height
749 751 754 756 757 759 761 763 765 767 769 770 772 773 775 777 778 779 780 781 783 784 786 788 790 793 795 796 797 798 799 800 800 801 799 798 800 802 801 801 802 801 803 803 803 804 805 806 806 807 806 807 811 813 813 814 816 817 826 835 839 846 842 836 840 840 834 831 835 841 842 839 840 843 843 844 845 845 847 846 846 846 846 845 845 845 846 847
747 750 752 755 756 758 760 762 764 766 767 769 771 772 774 775 776 778 779 781 782 784 786 787 790 792 794 795 796 797 798 799 799 798 795 796 799 800 800 800 801 801 802 802 802 803 804 806 805 806 807 810 814 813 813 816 817 821 832 835 836 839 834 832 833 834 835 830 832 840 843 841 839 842 843 843 845 846 846 845 846 845 844 844 844 845 845 847
745 748 751 753 755 757 759 761 763 765 766 768 770 771 773 774 776 777 778 780 781 784 785 787 789 791 793 793 795 796 797 799 799 796 793 795 797 798 800 799 800 801 801 801 802 802 803 804 804 806 809 812 815 814 814 816 818 824 831 831 830 831 831 835 834 833 835 832 832 838 843 843 840 842 842 843 844 846 845 843 844 843 841 842 844 844 845 847
743 747 750 752 754 756 758 761 762 764 766 767 768 770 771 773 774 776 777 779 781 783 784 786 788 789 792 792 794 795 796 801 798 791 791 793 794 797 798 799 799 800 800 801 801 802 803 803 804 806 809 814 817 816 816 818 820 824 827 825 828 831 830 834 836 834 836 836 833 836 843 842 841 843 842 843 845 845 842 838 838 837 836 839 843 844 845 846
742 745 749 751 753 756 758 760 762 764 765 767 768 769 770 771 773 775 777 778 780 782 783 785 787 789 790 791 794 794 798 805 795 787 790 791 792 795 796 798 798 799 800 800 801 802 802 803 803 806 810 814 817 816 818 820 820 823 827 828 831 834 829 832 839 837 838 838 835 837 839 838 840 842 841 842 842 839 836 834 834 833 833 837 840 842 844 845
741 744 747 750 752 755 757 759 761 763 765 766 767 768 769 770 772 774 775 777 779 781 782 784 785 787 788 790 793 794 798 801 791 786 789 788 790 793 794 797 797 798 799 799 800 801 802 803 804 808 811 815 818 818 819 823 821 821 827 831 834 835 830 834 839 838 839 834 832 836 835 838 839 839 844 842 836 834 833 834 834 833 835 836 838 841 842 843
739 743 746 749 751 754 756 758 760 762 764 766 767 767 768 769 771 772 774 776 778 779 781 783 784 786 787 790 793 794 797 793 788 788 788 787 790 791 793 796 796 797 798 799 800 801 803 804 806 810 811 815 819 819 820 822 821 820 824 830 835 837 833 836 839 838 838 832 833 837 835 838 836 837 846 841 832 833 834 835 835 834 835 836 838 840 839 840
738 742 745 748 751 753 755 757 759 761 763 765 766 767 767 769 770 771 773 775 777 778 780 781 783 784 786 790 792 796 797 791 788 788 788 788 789 790 793 795 795 797 797 798 799 800 802 804 807 810 811 815 816 818 821 821 821 820 823 829 835 837 836 839 840 838 838 835 838 838 835 837 838 841 843 835 829 833 835 835 835 835 836 837 837 838 838 839
737 741 744 747 750 752 754 756 758 760 762 763 764 765 766 768 769 770 772 774 775 777 779 780 782 783 786 788 791 796 794 788 788 788 788 789 789 790 792 794 794 796 796 798 798 798 801 804 806 807 809 814 814 816 820 819 821 821 825 831 833 835 837 839 837 837 837 837 838 835 835 839 842 843 837 829 830 833 835 835 835 836 836 837 836 836 836 837
736 740 743 745 748 751 753 755 757 759 761 762 763 764 766 767 768 770 771 773 775 776 778 780 781 783 785 787 792 797 790 786 788 788 789 789 789 791 791 793 794 795 796 797 798 798 800 801 803 804 806 812 814 819 822 819 821 824 828 831 833 836 838 837 835 836 837 837 837 833 835 840 843 843 832 827 832 834 834 834 836 835 834 835 835 835 835 835
735 739 742 744 747 750 752 754 756 758 760 761 762 764 765 767 768 769 770 772 774 775 777 779 780 782 784 786 792 794 787 786 788 787 789 789 789 791 791 793 793 794 795 796 797 797 798 799 801 803 806 810 815 821 823 821 823 826 827 828 834 837 836 837 835 836 836 835 837 834 835 840 842 839 829 828 833 834 831 831 835 834 833 835 835 835 835 834
734 737 741 744 746 749 751 753 755 757 759 760 762 763 765 766 767 768 769 771 773 774 776 778 780 781 783 786 789 788 786 787 788 788 789 789 790 791 791 793 793 794 794 796 797 797 798 799 799 803 807 809 815 822 822 824 826 826 826 826 834 834 833 837 836 838 836 834 839 836 837 840 838 832 826 831 834 833 832 830 832 833 833 835 835 835 834 834
733 736 740 742 745 748 750 753 755 757 758 759 761 762 764 765 766 767 768 770 772 774 776 777 779 780 783 787 786 784 785 787 787 788 789 789 790 791 791 792 793 794 794 795 796 797 798 799 799 804 808 810 817 821 820 825 827 826 829 829 834 835 834 838 839 839 835 836 840 837 839 836 830 827 827 834 835 831 830 828 830 831 833 835 835 835 834 833
733 736 738 741 744 747 750 752 754 756 758 759 760 762 763 764 765 766 767 769 771 773 775 777 779 780 783 785 783 783 785 786 787 788 788 789 790 790 791 792 792 793 794 795 796 797 798 799 800 804 809 812 816 819 821 827 829 829 832 836 843 842 836 839 842 840 834 838 839 835 840 833 824 825 828 835 835 830 828 826 828 830 831 833 833 834 833 832
732 735 738 740 743 746 749 752 754 756 757 759 760 761 762 763 764 765 767 769 771 773 775 777 779 780 784 784 782 783 784 785 787 787 788 789 789 790 791 792 793 793 793 795 796 798 799 799 801 807 814 815 815 819 824 829 832 836 835 840 852 847 837 838 843 843 836 838 838 836 839 833 825 824 828 835 835 831 828 825 828 829 829 830 831 832 830 829
731 734 737 740 743 745 748 751 753 755 757 758 760 761 762 763 765 765 767 769 771 773 775 778 778 779 783 784 782 783 784 784 785 786 788 788 788 790 791 792 793 793 794 795 796 798 799 801 808 813 815 817 817 819 826 834 837 842 839 840 850 847 840 839 842 846 843 839 837 836 837 831 826 825 829 835 834 831 829 826 827 827 827 828 828 829 828 827
730 733 736 739 742 745 748 750 752 754 756 758 759 761 762 763 765 766 768 769 772 774 775 777 778 779 782 782 782 783 783 783 784 786 787 788 789 789 790 792 793 794 795 796 797 799 801 806 814 816 816 821 822 819 829 841 840 843 844 844 852 851 846 840 838 845 846 840 837 838 838 830 824 824 826 831 832 831 828 824 824 825 825 826 826 827 826 825
729 733 736 739 742 744 747 749 751 753 755 757 758 760 762 763 766 767 769 771 772 775 778 778 778 783 784 781 781 782 781 782 784 785 786 787 789 789 790 791 794 795 796 799 800 802 805 811 815 816 819 825 824 819 828 838 836 837 841 841 847 851 850 844 838 844 846 840 839 840 839 832 826 824 823 827 831 828 825 824 825 825 824 824 826 825 823 822
729 732 736 738 742 744 746 748 750 752 753 756 758 760 762 764 767 769 770 771 773 775 779 778 778 782 783 779 779 780 781 783 783 785 786 787 789 790 790 791 794 795 798 803 804 805 807 812 817 818 822 825 822 818 820 825 825 828 836 836 837 840 846 847 843 847 850 841 839 838 836 835 829 824 821 823 829 828 825 826 825 824 822 821 822 821 820 820
728 732 735 738 741 743 746 748 749 751 752 754 756 758 760 763 768 773 773 772 772 774 775 774 775 777 777 777 778 780 781 783 784 785 786 787 788 789 791 793 796 798 802 805 806 809 810 813 818 819 820 821 820 822 823 826 828 830 836 838 839 839 839 845 846 849 852 841 838 842 840 837 832 826 823 823 828 828 825 823 820 818 818 817 816 815 815 815
728 731 734 737 740 743 745 747 749 750 751 752 753 754 755 756 761 768 772 773 774 775 774 774 775 775 775 776 777 778 781 783 785 785 786 787 787 790 795 797 798 804 809 810 809 811 812 815 818 817 818 820 823 828 827 829 833 833 835 837 842 844 839 845 848 848 853 843 839 848 843 832 829 826 823 822 823 820 817 816 813 811 811 812 812 811 811 810
727 731 734 737 740 742 745 747 749 750 751 752 753 754 754 753 754 757 763 770 773 775 775 775 775 775 775 776 777 777 779 785 788 786 786 787 787 791 797 799 801 808 813 813 811 814 817 817 817 820 825 826 829 831 826 828 833 835 839 839 841 845 843 846 849 849 852 843 837 846 841 826 824 824 820 818 817 812 811 811 809 808 807 807 807 807 808 807
726 730 733 736 739 742 745 747 748 749 751 752 753 754 754 753 755 755 758 767 773 776 776 775 775 776 777 777 777 777 779 785 789 788 787 787 789 792 795 800 805 810 813 810 810 817 820 818 819 825 826 823 828 831 826 829 835 836 838 836 838 846 843 838 842 849 852 849 845 844 839 826 819 818 812 813 818 814 812 812 810 812 808 804 805 806 807 805
724 728 732 735 738 741 744 746 748 750 751 753 753 753 753 753 755 755 759 769 774 775 775 776 776 775 776 776 775 776 780 784 786 786 786 786 791 793 794 801 806 811 813 811 812 815 817 823 829 828 824 820 826 831 828 827 834 839 837 831 833 839 840 839 843 848 849 852 852 843 834 824 816 814 805 810 821 814 811 811 806 807 808 807 807 805 805 804
723 727 731 734 738 740 743 746 748 750 751 754 753 753 754 754 755 755 759 771 776 776 777 775 776 775 773 774 775 775 778 783 785 786 785 786 789 793 797 802 804 810 816 815 815 814 817 829 831 825 824 824 825 829 828 826 831 837 834 829 829 830 835 843 845 844 840 843 852 849 836 823 816 813 803 805 813 805 806 809 798 797 803 805 803 799 800 801
721 726 729 733 736 739 743 746 748 750 752 754 752 752 754 753 757 755 759 777 780 777 779 775 775 774 771 774 776 776 780 784 785 785 785 786 787 789 797 804 805 811 817 815 815 818 824 833 829 821 824 825 826 829 829 829 832 833 833 834 834 833 834 838 838 839 839 842 855 858 845 832 821 809 804 809 810 801 801 801 793 793 799 800 799 796 797 798
720 724 728 731 734 736 740 744 747 750 752 752 750 753 754 753 757 754 763 789 786 772 776 777 775 771 770 775 774 775 783 785 785 786 785 786 786 786 794 803 806 809 815 813 815 821 826 830 828 823 825 826 827 828 828 831 830 831 839 839 834 831 832 836 836 837 844 847 854 856 848 844 833 814 814 820 811 800 796 792 788 791 795 797 798 798 797 796
719 723 727 731 733 735 738 741 745 748 749 749 749 753 753 754 758 755 770 794 783 766 770 774 772 769 771 775 775 777 781 780 783 788 787 785 787 787 792 800 801 806 814 812 813 821 824 823 822 822 824 827 827 829 831 829 825 834 849 846 837 835 836 839 838 840 851 851 845 849 850 849 836 816 820 825 812 801 794 788 787 789 792 793 794 796 796 796
717 722 726 730 734 736 738 739 743 746 746 747 750 752 753 755 756 759 779 788 771 763 768 769 771 772 774 776 778 780 781 780 783 786 787 786 787 787 793 801 801 807 814 810 810 820 825 825 824 820 818 823 831 840 841 829 824 841 854 848 843 846 843 843 842 841 851 850 842 851 856 850 833 811 812 819 811 803 795 790 792 792 793 793 792 793 793 794
716 720 725 729 732 736 738 740 742 744 746 748 749 752 753 756 758 773 793 780 760 765 771 770 772 774 776 779 782 783 782 784 786 786 788 788 787 790 796 802 802 806 812 812 815 823 828 830 829 825 823 828 837 844 846 838 836 845 846 838 838 843 842 845 849 846 849 850 849 862 866 856 839 813 803 808 805 799 794 792 793 791 791 792 791 792 792 792
715 720 724 727 730 733 736 740 741 743 746 747 749 753 753 758 767 781 789 766 754 771 776 773 775 775 775 775 779 784 784 787 787 785 788 790 791 793 797 801 803 808 814 815 819 825 827 826 827 829 833 836 834 837 845 847 846 843 833 831 836 843 845 847 851 851 851 849 854 871 874 863 847 817 799 802 802 801 800 794 791 790 789 789 788 790 793 793
714 718 723 726 729 732 734 737 739 742 746 747 750 752 753 767 776 773 770 757 754 768 768 769 775 775 774 772 777 784 785 787 787 785 788 791 794 794 795 797 799 809 819 819 820 823 822 823 826 830 835 834 824 830 844 845 843 838 832 833 839 850 856 852 855 859 855 853 861 874 872 859 842 816 801 799 793 797 805 799 793 793 790 788 788 789 791 793
714 718 723 727 729 732 733 735 738 742 745 746 751 751 754 772 773 760 760 758 756 763 762 764 772 774 774 775 780 785 783 785 787 786 789 791 793 796 795 796 796 799 809 818 821 823 822 824 827 826 829 830 821 824 836 839 838 836 832 831 836 851 860 857 866 871 860 856 867 877 869 847 827 810 801 795 786 792 801 799 797 796 793 791 792 794 793 791
715 718 722 726 729 732 733 734 738 741 744 747 749 751 759 769 760 750 756 758 759 765 763 764 772 775 775 775 780 781 780 787 790 787 791 793 795 798 796 797 798 794 802 815 819 820 821 822 822 821 822 825 822 821 825 828 833 836 835 832 831 837 842 845 853 851 847 856 869 873 857 829 809 800 798 796 794 797 798 800 803 801 799 800 799 797 792 789
715 718 722 726 730 731 732 734 738 740 744 747 747 751 758 758 749 745 750 754 760 766 765 766 770 774 779 779 781 780 778 786 792 790 792 792 791 793 790 792 797 794 797 809 815 818 819 817 820 827 829 825 822 824 824 823 829 839 841 835 831 827 829 851 868 861 857 860 860 860 844 821 808 797 795 800 799 797 795 798 801 796 797 801 796 791 789 787
715 719 722 725 728 730 732 735 737 741 744 744 747 752 749 740 736 738 740 746 755 761 765 770 771 774 781 782 782 782 778 783 791 792 792 791 788 788 785 784 790 791 787 794 808 815 817 819 824 829 830 827 826 827 825 822 825 835 838 833 835 836 832 850 875 882 874 854 844 850 835 818 813 796 788 794 792 789 791 791 791 791 793 794 789 788 789 787
715 718 721 724 727 729 733 735 738 743 745 743 744 744 737 730 733 735 736 742 750 753 757 766 770 772 777 781 781 781 778 782 790 791 790 791 786 782 783 781 783 785 781 784 796 803 807 818 828 827 823 829 834 830 827 827 826 829 831 829 835 841 835 835 848 864 870 853 841 846 835 820 819 803 787 790 786 780 783 784 786 788 789 789 789 790 789 786
714 717 721 724 727 730 732 736 739 743 746 745 741 736 731 731 736 737 737 741 746 747 749 757 765 768 771 776 778 780 777 778 787 789 787 789 781 772 777 779 779 782 781 781 787 793 798 809 827 833 826 828 832 827 824 831 832 827 827 828 828 832 834 836 840 844 854 854 841 841 845 834 824 809 789 784 782 777 778 782 785 787 786 788 789 788 787 786
714 719 723 724 727 730 732 736 741 745 748 745 738 732 730 732 738 741 740 739 740 742 746 752 759 766 770 771 773 778 777 776 784 786 782 784 779 770 771 773 776 783 783 781 784 792 797 802 819 833 831 827 827 823 821 826 832 831 829 831 828 828 830 833 839 836 837 847 844 836 835 821 811 809 794 780 779 779 778 781 784 787 786 787 789 786 785 786
715 721 723 723 726 729 732 737 742 746 745 737 730 729 730 731 739 744 743 739 737 739 743 747 754 761 767 770 771 774 776 777 782 780 775 777 776 772 771 769 773 783 785 783 784 791 797 798 811 829 833 828 823 820 818 818 824 828 827 830 830 833 836 833 838 842 834 836 843 838 826 806 799 804 794 781 781 782 781 781 785 791 789 787 789 787 785 786
716 720 721 722 725 728 732 737 741 742 739 732 728 730 731 733 737 741 743 742 740 740 741 742 748 753 759 766 768 770 774 778 780 778 774 774 770 767 768 765 769 779 784 786 785 787 794 797 810 827 830 823 818 822 824 819 817 818 818 821 822 826 833 830 835 847 843 836 840 842 828 802 792 796 791 785 786 787 790 787 786 792 793 790 790 789 789 788
716 718 718 719 723 725 728 733 737 737 734 731 730 730 731 734 736 738 741 742 740 741 742 742 746 750 753 758 762 766 770 774 779 777 772 770 766 763 765 767 769 772 776 781 783 786 794 800 812 823 825 822 823 831 838 830 822 819 817 818 818 818 819 817 823 838 846 847 848 852 837 801 788 798 797 793 794 794 797 794 785 786 792 793 792 791 792 792
716 716 717 718 721 722 725 731 735 735 735 735 732 732 733 734 735 737 739 739 739 740 741 741 744 747 749 753 758 762 764 768 773 771 766 767 766 764 767 768 769 770 772 776 781 786 791 793 804 818 823 824 825 829 835 833 825 819 817 819 820 818 814 815 821 828 835 841 843 849 839 802 787 800 801 798 801 797 796 796 788 782 785 788 789 789 790 790
716 716 717 718 720 721 721 723 725 729 736 737 733 733 736 735 735 736 735 735 738 739 737 738 743 744 746 750 753 756 759 761 766 767 765 765 766 768 769 767 768 768 768 768 770 776 783 785 796 814 823 823 825 826 826 826 823 817 815 819 819 818 820 824 828 828 828 832 830 832 827 801 789 797 796 794 796 790 788 794 792 786 785 788 788 787 788 788
716 716 717 718 718 718 719 718 718 725 734 734 731 732 733 735 738 737 734 735 740 739 735 739 745 744 745 749 750 754 755 753 757 763 766 765 766 770 771 769 767 765 764 765 763 767 777 782 787 799 810 814 814 811 805 805 814 817 817 820 817 815 816 816 822 826 824 830 830 819 808 797 792 793 788 787 789 784 783 790 793 791 791 791 789 787 787 788
718 717 717 719 719 719 722 722 719 725 731 729 730 732 729 732 738 738 736 737 741 741 738 742 746 743 745 748 749 753 755 754 757 759 761 764 766 771 774 773 770 767 766 767 766 769 777 781 780 780 786 787 784 784 784 787 800 808 810 814 814 813 813 811 819 821 817 829 833 813 798 795 793 791 786 784 786 784 783 783 785 788 789 790 789 790 791 790
720 718 718 719 720 721 724 724 722 725 728 726 728 730 728 730 735 737 736 736 739 740 739 743 743 739 742 746 747 751 752 756 760 758 760 765 767 773 777 775 773 772 770 768 767 770 775 779 779 776 774 772 771 777 783 783 788 796 802 810 812 813 813 812 813 808 808 824 824 804 799 800 794 789 786 783 783 783 781 778 779 784 786 787 790 791 791 791
719 719 719 717 718 721 722 723 724 725 725 725 727 729 730 731 731 732 736 738 739 738 737 741 742 738 739 740 741 747 752 756 759 759 761 766 768 771 773 773 774 773 772 771 769 770 772 773 776 777 775 774 776 782 785 781 783 790 798 804 808 812 812 809 806 800 803 811 799 788 797 798 790 788 784 779 780 779 777 780 783 786 786 787 791 790 789 788
720 720 721 719 718 720 720 721 724 725 725 726 729 731 730 729 730 730 733 737 739 738 735 737 738 739 741 740 737 742 748 751 753 756 761 765 766 768 767 768 772 773 772 770 771 773 771 769 775 778 777 777 781 786 786 783 785 791 797 800 803 806 805 802 799 795 797 798 787 787 797 791 782 786 783 778 780 780 782 786 786 785 784 786 788 787 786 785
719 719 720 720 722 723 722 723 724 725 728 728 729 731 729 727 728 729 730 731 733 737 737 735 736 741 745 744 739 739 742 742 742 747 755 760 762 764 761 759 764 773 773 769 771 774 771 771 777 779 779 780 783 786 789 789 786 788 796 803 804 805 804 800 795 792 797 799 792 795 802 790 780 783 782 779 781 782 785 786 784 782 782 783 783 783 783 782
718 718 718 719 721 723 725 726 725 725 729 730 728 729 729 727 727 727 729 729 728 732 735 735 738 744 747 746 742 741 743 742 739 742 748 750 750 753 753 752 757 766 770 769 770 770 770 776 780 779 779 780 780 785 793 795 792 790 796 802 804 803 798 794 791 789 794 797 796 802 802 786 776 778 777 778 782 783 783 783 782 781 780 780 781 780 780 781
717 719 718 716 719 723 724 726 727 725 724 724 725 727 728 728 728 727 730 731 729 730 733 734 736 740 745 747 744 742 744 745 744 746 750 750 749 751 753 754 755 758 762 767 769 769 770 771 775 778 777 778 787 793 792 795 797 794 788 785 789 792 789 790 792 790 789 790 793 796 787 770 771 777 776 778 783 781 779 779 779 779 779 780 781 781 782 784
Wind_Speed
25 26 26 23 22 22 20 19 18 18 17 17 17 17 17 17 16 15 16 16 18 19 20 20 19 18 19 18 16 14 11 9 8 10 13 15 18 15 13 12 9 11 11 8 7 7 4 2 4 4 5 3 3 1 2 3 3 4 3 4 2 3 3 6 8 7 4 2 4 4 5 7 4 2 0 1 3 3 0 2 2 2 3 4 2 1 9 18
26 27 27 24 24 24 20 19 19 18 17 17 17 17 16 16 14 13 14 16 18 18 18 19 17 17 17 16 14 13 10 7 6 9 16 18 15 13 13 13 10 8 10 9 10 10 7 3 4 4 4 2 2 2 1 2 3 4 3 3 3 5 4 5 7 6 2 2 5 4 3 4 5 4 2 2 2 3 1 3 3 3 4 3 3 3 15 20
28 28 27 25 26 24 20 19 20 19 18 18 17 17 16 15 13 13 13 16 17 16 17 17 16 16 15 15 13 11 8 4 3 9 18 18 15 15 12 10 10 9 10 9 10 11 9 8 9 5 4 3 1 2 3 2 1 2 4 3 4 6 3 3 5 6 4 3 7 5 2 2 3 4 2 3 2 1 4 5 1 4 7 5 2 7 18 19
29 29 27 26 26 23 21 20 20 20 19 17 17 16 16 15 13 12 13 16 17 16 16 16 15 15 14 13 12 10 7 1 3 8 14 16 16 16 13 9 9 9 10 8 8 10 10 11 8 4 4 3 3 2 3 1 0 2 4 4 5 3 2 2 5 5 4 3 6 6 5 2 3 3 2 5 3 2 6 7 8 9 8 6 3 9 18 18
30 29 28 27 26 23 22 21 20 20 19 17 17 17 16 15 12 12 13 16 17 16 15 15 14 14 14 12 11 11 7 2 4 7 11 14 15 17 14 10 10 10 9 8 9 10 11 9 6 5 4 2 2 3 1 2 1 3 1 3 4 3 3 2 4 4 3 3 6 8 6 4 3 2 3 7 6 5 5 5 8 9 7 8 8 13 16 17
31 29 29 28 25 24 23 22 21 20 19 18 17 17 16 15 12 12 13 16 17 16 15 15 14 14 13 12 12 10 7 1 2 2 8 13 15 17 14 11 11 11 10 10 10 10 8 5 4 3 3 3 2 2 2 2 2 3 1 0 3 2 2 1 2 3 4 6 7 7 5 3 5 1 2 7 8 5 4 4 5 6 7 10 12 16 15 14
32 30 30 28 25 25 23 22 22 20 19 18 17 16 15 13 12 12 13 15 16 16 16 14 14 14 13 13 11 6 2 3 3 1 5 10 16 16 14 12 12 11 11 12 9 6 5 5 4 4 4 3 2 2 2 1 4 4 2 1 2 1 1 1 1 2 4 6 5 4 3 4 6 4 2 4 10 5 3 3 2 3 8 12 12 15 16 16
32 31 30 28 26 25 23 22 21 20 19 18 17 15 13 12 12 13 14 15 16 16 16 15 14 14 14 13 9 2 2 4 2 1 3 8 14 16 14 13 13 11 12 12 9 7 5 6 5 4 4 1 4 3 2 3 5 3 3 2 2 1 1 2 2 3 3 3 2 4 5 2 5 4 1 7 10 5 4 1 3 5 7 9 10 14 15 15
32 31 30 29 26 25 24 23 22 20 19 18 16 14 13 12 12 13 14 15 15 16 16 16 15 14 15 12 7 2 4 4 2 2 3 8 12 15 15 13 13 12 11 10 9 9 6 4 5 4 4 2 4 4 2 3 0 2 4 3 4 1 3 1 3 4 2 1 2 5 4 2 2 2 2 8 7 4 2 2 4 6 6 7 8 12 14 13
32 31 31 30 26 25 25 24 23 21 19 17 16 14 13 12 12 12 14 14 15 16 16 16 16 16 16 10 6 3 4 2 4 3 3 7 10 14 15 13 14 13 10 7 7 10 6 5 7 5 5 3 4 3 1 3 2 3 6 6 5 2 3 1 3 2 1 1 1 5 4 2 1 1 4 5 4 2 2 3 3 5 7 8 7 9 12 13
32 31 31 29 27 26 26 24 23 21 19 17 16 15 14 12 11 11 12 14 15 16 16 16 17 18 15 9 6 4 3 2 4 4 5 7 8 12 13 12 13 13 11 6 7 9 4 8 11 5 2 2 4 3 1 2 4 4 7 6 6 4 2 4 4 2 2 2 1 5 4 3 2 1 6 3 3 1 5 3 3 5 6 7 7 7 9 12
32 31 30 28 27 27 27 25 23 21 19 17 16 16 15 13 11 11 13 14 15 16 16 17 18 18 12 6 4 6 3 3 4 5 6 6 8 11 10 11 11 11 11 7 7 9 4 10 13 6 0 4 5 2 2 3 4 3 5 5 5 6 4 4 2 2 2 2 1 3 2 3 2 6 7 2 4 2 5 4 4 5 5 4 5 5 7 10
31 31 29 26 27 28 27 25 23 21 20 18 17 16 15 13 12 11 13 14 14 16 17 17 18 16 9 3 4 8 5 3 4 5 6 7 8 10 9 11 11 9 9 7 8 8 5 10 11 6 3 5 3 2 4 4 3 2 3 4 2 5 3 3 2 3 0 2 3 1 1 5 8 10 6 1 4 3 1 5 5 4 4 4 4 4 6 9
31 30 28 26 27 28 26 24 22 21 19 17 16 15 14 13 13 12 13 13 14 15 16 17 18 13 6 2 4 8 8 5 5 6 7 8 9 10 9 10 10 9 7 6 8 7 7 11 10 7 3 3 4 3 4 5 4 2 3 2 2 2 3 4 3 1 3 1 4 3 2 6 8 8 4 2 2 1 4 6 4 4 4 4 4 5 6 8
30 29 28 27 27 27 25 23 22 20 18 17 16 15 12 13 13 12 13 14 14 15 16 17 16 9 3 2 2 6 8 6 7 7 7 10 11 9 7 10 9 8 8 7 9 9 9 11 10 6 1 2 4 6 4 4 4 3 2 1 2 3 4 6 2 1 2 1 4 5 2 6 7 7 4 3 3 5 6 6 5 5 5 5 5 6 6 7
30 29 27 27 28 27 25 23 21 20 18 16 16 14 12 12 12 13 14 14 14 16 16 14 13 8 4 1 2 5 5 5 8 9 8 10 10 8 10 12 10 10 11 11 13 12 9 8 5 2 3 2 4 6 4 3 3 4 2 2 1 2 3 4 1 2 1 1 2 2 2 3 3 5 5 3 4 4 2 6 6 5 6 5 5 6 6 7
29 29 28 27 28 26 25 23 21 20 18 17 16 14 13 12 11 13 15 15 16 15 13 11 10 5 2 2 3 3 3 5 9 10 10 9 9 12 14 10 8 11 13 12 11 8 6 5 1 0 3 3 3 6 5 1 2 2 3 2 2 3 2 2 2 3 4 1 1 1 2 6 5 6 7 4 1 1 3 7 6 5 6 5 5 5 6 7
30 29 28 28 27 25 24 22 21 20 18 17 16 14 15 15 13 15 18 18 16 12 8 5 5 3 1 3 3 2 2 7 11 10 10 10 11 14 12 7 6 10 10 6 4 3 4 4 2 2 3 3 2 5 5 4 5 5 3 3 2 2 3 3 3 2 4 1 2 1 4 9 10 10 9 6 3 3 7 6 5 7 7 7 6 6 7 7
30 29 29 28 27 25 23 22 20 20 19 17 18 20 20 18 14 13 13 12 9 6 3 4 4 3 3 3 2 3 6 10 10 8 9 11 11 10 9 8 7 7 6 3 2 2 2 3 3 3 2 2 5 6 7 7 8 9 6 4 5 3 4 5 4 4 1 1 4 5 5 7 9 11 11 6 3 4 7 6 6 7 7 8 6 7 8 8
30 30 30 28 27 24 22 21 21 20 20 21 23 20 14 11 8 4 2 2 3 2 2 5 5 3 2 1 3 8 9 8 5 4 9 11 11 10 6 5 5 6 4 4 2 1 3 4 3 5 6 7 7 6 6 5 6 8 6 4 4 4 2 4 3 5 1 2 4 3 4 8 9 11 12 9 3 4 8 8 9 9 8 8 8 8 8 9
31 31 30 28 27 23 21 21 21 20 22 26 23 11 5 6 5 4 2 1 1 1 2 2 4 2 1 4 7 10 6 4 3 3 8 9 10 9 2 2 5 4 1 2 3 2 3 4 6 6 7 7 6 6 8 7 7 6 6 5 2 3 3 2 2 4 3 1 3 3 4 10 10 10 11 8 6 7 9 9 10 11 10 8 8 10 9 8
32 31 30 29 26 23 22 21 20 21 24 24 14 2 2 5 7 11 9 2 1 3 5 1 3 2 2 3 7 7 4 4 3 1 4 6 4 5 1 3 7 3 1 2 3 3 2 3 6 5 6 7 7 6 8 8 7 5 4 5 2 3 2 3 2 4 4 1 3 4 5 10 11 9 11 10 9 9 8 9 9 9 10 9 8 9 8 8
33 32 30 29 26 23 21 21 20 21 22 18 8 1 4 8 13 15 9 4 1 3 4 1 2 2 2 1 6 6 5 3 4 2 3 5 3 3 5 5 5 4 2 4 5 5 4 4 5 5 7 9 6 4 8 8 5 4 4 5 2 2 2 2 2 3 3 1 1 2 3 8 8 7 9 9 6 7 7 8 9 8 10 11 9 7 7 8
35 33 31 29 27 23 21 21 20 19 18 15 9 5 8 12 15 13 6 4 2 1 1 1 2 4 3 2 6 7 5 2 5 4 3 5 4 3 5 5 5 5 2 4 6 6 4 3 2 6 6 8 7 3 6 6 2 0 3 5 3 3 4 2 1 2 3 2 2 2 4 6 5 5 7 5 4 5 5 6 8 8 9 9 9 9 9 10
37 34 32 31 26 23 24 21 16 16 16 12 9 7 10 12 12 9 5 4 1 1 2 2 1 3 4 3 4 6 5 2 2 2 3 5 6 4 3 2 3 4 3 4 7 4 3 3 3 8 4 6 8 4 5 7 3 2 4 6 6 7 6 2 1 3 3 3 3 4 3 5 4 4 7 5 6 6 4 5 9 8 6 6 8 10 8 8
38 35 34 32 28 27 23 13 11 17 13 7 11 11 11 12 11 7 5 4 1 2 1 2 1 4 7 3 2 4 5 2 1 1 2 4 4 4 4 1 2 3 4 5 4 2 1 2 3 7 6 6 6 3 5 6 6 3 4 5 7 7 8 6 4 4 2 2 2 3 2 4 6 5 7 5 7 10 7 6 9 8 5 5 6 8 7 7
39 36 36 32 30 30 18 8 14 18 7 6 15 15 11 11 9 5 5 5 3 2 4 1 1 5 8 2 2 6 4 4 2 3 2 3 1 3 4 3 2 2 3 4 2 1 2 3 4 6 6 6 5 4 5 7 7 3 3 6 9 8 8 7 5 4 2 2 3 4 3 2 5 6 6 5 6 10 9 8 9 6 5 6 6 7 7 8
41 38 36 33 32 28 17 14 20 15 4 9 18 16 12 12 8 4 6 3 2 1 4 1 0 5 3 1 3 4 2 3 5 2 2 4 1 3 4 5 5 4 1 4 4 3 2 4 5 6 5 4 5 4 5 8 6 3 3 6 7 7 7 5 6 4 1 1 3 4 2 1 6 6 5 5 4 7 9 11 10 7 7 7 6 7 7 7
42 39 37 34 31 23 15 17 21 16 9 13 20 18 14 12 6 4 4 2 1 1 1 2 3 2 1 2 3 3 1 2 3 3 2 4 3 4 4 5 7 8 2 3 5 2 1 4 6 6 5 5 3 2 1 3 3 3 5 7 6 6 6 5 5 3 2 1 4 4 2 1 5 7 4 2 2 6 9 10 8 7 7 7 6 7 7 6
42 40 38 35 29 20 15 14 16 18 12 14 22 19 13 8 4 5 2 3 2 1 0 1 2 2 5 6 1 3 2 2 1 1 2 2 4 6 3 2 6 7 4 6 4 1 2 1 1 2 3 5 4 4 3 2 4 7 6 7 7 6 5 4 3 4 3 2 5 5 2 0 3 6 4 3 4 6 6 6 6 6 7 6 6 6 6 6
43 40 39 35 28 22 16 9 12 17 12 17 23 16 8 4 3 5 4 3 3 2 0 1 1 4 10 12 5 0 3 2 1 4 3 1 4 4 2 2 4 5 3 4 3 3 3 2 0 0 1 4 6 5 5 3 4 6 4 5 5 4 4 4 4 3 2 4 6 3 2 1 3 6 4 4 6 6 5 4 7 7 8 7 6 6 6 5
44 41 39 34 28 24 14 7 14 18 15 21 21 9 5 4 1 4 4 2 2 3 4 4 3 5 10 9 5 3 4 2 1 4 5 3 3 4 4 4 4 3 0 3 1 2 2 1 1 1 0 3 6 5 5 4 4 5 4 6 5 2 3 1 3 1 3 5 4 2 1 2 6 8 8 10 11 8 7 7 7 7 8 8 7 7 7 6
43 41 37 30 26 23 14 10 18 20 18 21 14 4 5 5 6 8 4 2 2 2 3 3 2 5 9 7 3 3 3 1 3 3 2 3 5 3 0 2 6 5 2 4 4 2 1 3 1 3 0 2 5 5 3 1 0 4 5 6 5 3 3 2 3 2 3 4 3 3 2 3 5 5 9 15 13 6 6 8 7 6 8 8 7 8 8 8
41 39 34 27 24 21 13 12 20 23 21 16 7 4 6 6 7 8 6 4 2 1 2 4 6 7 7 5 4 4 3 1 3 3 2 4 6 5 3 3 4 5 4 3 3 5 4 4 3 3 2 2 4 4 5 5 3 2 3 4 5 5 4 4 4 3 4 2 3 3 2 3 2 2 5 10 9 6 4 6 5 6 8 6 7 8 7 8
39 36 31 26 22 16 13 15 22 26 20 10 5 6 9 8 7 7 7 5 2 2 3 3 8 8 4 1 1 4 3 1 2 3 3 5 6 8 7 6 6 4 6 5 3 3 4 4 3 2 2 3 4 3 3 6 3 1 1 4 3 4 5 3 3 5 3 0 1 2 3 4 4 6 8 5 6 8 6 5 4 6 7 4 6 7 6 6
36 31 26 24 21 16 15 19 24 26 17 7 6 8 8 8 6 5 6 5 4 7 7 4 4 5 4 1 0 5 2 3 4 3 3 4 3 7 8 6 7 7 7 6 3 2 3 2 3 3 2 1 2 3 1 2 3 2 2 3 4 3 8 6 2 0 3 1 3 1 4 5 4 7 9 4 5 8 7 5 5 6 5 4 5 5 5 6
27 22 17 17 20 17 17 21 25 22 11 5 8 9 7 7 4 4 5 6 6 9 10 5 1 4 5 3 4 7 3 3 4 3 4 4 2 6 8 5 7 10 8 4 2 3 5 2 3 2 2 1 1 2 4 3 3 5 3 5 3 2 5 4 2 3 3 2 4 1 4 5 3 4 7 7 6 7 6 5 4 4 4 4 5 5 6 7
19 14 10 13 22 20 17 21 23 15 5 4 9 9 4 4 3 3 5 7 8 8 7 6 3 3 6 6 5 7 5 4 5 4 4 4 4 6 10 6 5 10 8 3 2 2 5 3 3 1 2 2 2 3 3 3 3 3 4 3 4 3 2 2 2 1 1 2 4 4 4 4 4 5 5 4 5 5 5 2 1 4 5 4 5 5 6 6
16 8 3 13 25 22 20 23 19 9 3 7 11 9 3 2 2 2 4 6 7 6 6 5 3 2 5 6 5 6 6 6 7 5 4 4 4 5 9 6 2 7 7 5 4 2 4 4 1 1 2 1 2 2 4 1 3 3 2 2 3 3 4 2 2 4 3 3 3 4 4 3 6 6 5 9 9 6 6 4 1 5 6 4 4 4 5 5
11 3 1 16 27 25 25 22 11 5 6 8 8 6 2 2 1 2 2 3 4 3 4 5 4 4 5 4 4 5 5 5 8 6 4 6 5 4 7 6 5 7 5 4 4 2 2 3 3 1 2 1 2 3 7 7 4 2 3 3 2 1 2 1 1 2 4 4 3 2 4 5 6 4 7 10 9 7 7 5 3 5 5 5 4 5 5 5
5 2 2 18 29 28 26 15 4 6 7 4 2 2 1 2 3 1 1 1 2 1 3 6 5 5 6 4 3 5 4 3 6 5 3 5 6 5 6 7 9 9 5 4 4 4 2 3 5 3 0 3 4 3 4 5 6 6 5 6 6 4 4 3 2 1 2 3 4 3 3 8 6 4 6 7 6 6 6 5 4 5 6 6 6 6 6 6
4 2 4 20 33 29 20 6 2 5 4 3 3 2 2 3 4 3 1 2 3 1 3 4 4 4 5 5 4 6 7 5 5 5 4 6 7 5 4 5 10 12 9 5 3 3 3 4 5 2 3 4 3 2 1 2 2 4 3 4 5 4 5 6 5 4 2 1 2 4 1 8 6 3 5 6 5 5 5 5 5 5 5 6 6 6 5 5
2 1 5 22 35 27 12 4 4 4 3 3 1 2 2 2 3 4 3 1 2 2 2 2 2 3 3 3 5 7 8 5 6 8 5 4 5 4 4 7 10 12 9 5 3 3 3 4 4 0 2 3 4 3 3 2 1 2 3 3 5 3 3 5 5 4 4 3 3 4 2 8 5 1 3 5 5 6 5 5 5 6 4 4 6 5 2 2
1 1 3 15 28 22 10 6 8 9 4 0 2 2 2 1 3 4 4 3 2 2 3 2 2 3 3 4 6 8 9 5 5 8 4 3 3 2 5 11 12 11 7 5 7 6 4 3 5 3 2 3 3 2 3 3 2 4 3 3 4 4 6 5 2 4 2 4 7 5 4 6 4 4 2 3 4 6 6 5 5 5 5 4 4 2 1 3
1 1 2 4 10 9 5 3 6 9 6 3 4 4 2 2 1 2 5 4 2 3 4 2 1 3 3 4 5 5 9 5 3 6 4 2 2 1 2 9 11 9 4 2 5 7 5 4 5 7 6 5 6 6 4 3 3 2 2 4 6 7 9 5 2 4 3 5 7 6 7 4 2 4 2 2 5 5 6 5 4 5 5 4 3 0 2 3
1 0 0 2 2 1 1 1 3 6 6 6 5 4 4 4 0 0 3 3 1 2 3 1 2 4 3 5 6 5 9 5 2 4 6 5 3 1 0 5 6 4 1 2 8 7 3 3 6 9 11 11 11 8 4 7 6 5 5 8 9 9 9 7 4 4 6 3 4 8 11 8 4 2 3 4 4 5 5 4 4 4 5 5 3 2 3 3
0 0 1 2 1 1 1 1 3 4 4 6 4 4 5 5 2 1 2 1 3 3 3 2 2 3 5 7 6 5 9 6 2 3 5 4 2 2 2 2 3 2 3 3 8 5 4 4 8 10 13 12 8 6 4 8 9 10 10 10 10 10 10 9 8 10 6 6 6 13 12 13 10 6 6 7 5 5 6 5 5 4 5 4 1 3 5 5
0 0 0 1 0 1 1 3 4 5 5 6 2 2 6 6 5 4 1 2 2 2 2 1 2 5 8 10 8 5 6 5 3 3 2 2 3 1 3 2 2 1 2 3 4 4 5 7 8 9 13 11 4 5 6 7 7 9 12 13 13 13 13 13 15 15 9 7 15 13 9 14 13 8 9 9 6 6 6 5 4 4 5 3 2 3 5 6
0 0 1 2 2 1 2 5 7 6 6 6 2 2 7 8 7 4 2 3 1 1 2 3 5 6 7 7 7 6 8 7 6 6 4 4 3 3 3 1 1 1 3 4 2 2 4 5 5 8 11 11 4 5 6 7 6 5 9 13 15 16 17 18 18 19 14 14 19 9 6 13 13 8 10 9 6 6 4 2 2 3 5 3 2 5 6 7
1 1 0 1 2 2 3 5 7 6 4 4 3 3 6 10 10 4 2 4 4 2 3 4 5 5 5 5 5 4 7 7 6 8 8 7 4 3 4 4 3 2 2 4 3 2 3 3 3 6 5 8 5 6 5 5 6 5 6 9 12 14 16 18 18 17 13 13 16 9 6 15 8 8 9 9 6 5 3 2 4 5 6 6 6 7 7 9
2 1 1 3 2 2 3 3 4 5 4 3 5 4 5 9 10 6 2 1 4 5 5 6 6 5 3 4 4 2 5 4 5 8 9 8 7 5 3 4 7 7 5 5 3 3 4 2 2 5 4 6 4 7 6 4 5 2 3 7 13 14 14 15 13 10 9 11 13 9 9 14 6 8 8 7 6 6 7 7 8 8 8 8 8 8 8 8
3 1 1 3 2 1 3 3 3 4 4 4 4 4 4 5 6 7 4 2 2 5 5 8 9 5 3 4 4 4 5 6 6 5 5 4 4 4 3 3 6 8 8 6 3 2 5 5 2 5 6 4 2 6 8 7 5 3 7 12 18 16 13 9 6 7 9 11 10 9 12 15 6 7 7 5 7 8 10 9 9 9 9 8 8 8 7 5
Wind_Direction
187 189 193 188 179 185 186 183 184 183 183 182 182 184 185 185 186 185 183 185 188 189 189 190 192 196 198 197 196 199 201 203 211 208 210 230 242 246 248 256 258 235 228 219 190 173 159 158 189 160 133 93 17 336 33 23 55 62 79 99 138 176 202 185 177 196 171 166 196 206 197 159 173 239 163 90 52 43 75 288 289 282 260 237 263 232 154 157
185 189 192 182 179 186 183 179 180 179 180 180 178 180 184 183 183 181 180 188 190 189 190 190 193 195 196 195 190 192 194 204 222 230 227 230 239 246 247 251 254 234 209 203 197 178 160 185 181 117 69 53 356 359 54 2 56 87 107 112 193 199 206 195 171 183 173 126 156 172 191 176 179 165 129 195 289 24 148 266 323 307 261 239 285 177 159 161
185 189 187 179 180 183 179 177 176 178 177 175 175 177 181 181 180 181 182 189 189 188 190 189 192 193 192 188 184 188 185 194 250 249 239 230 232 241 243 243 238 222 205 204 205 194 185 181 160 119 56 60 354 28 78 15 37 138 117 112 230 210 201 221 179 187 212 146 136 151 159 181 194 152 143 190 211 18 198 226 230 256 242 216 261 161 161 165
184 186 182 178 179 178 176 175 174 176 174 171 174 173 178 181 178 181 184 187 187 187 187 188 191 190 187 180 179 180 159 74 265 232 230 224 225 230 234 235 220 206 208 206 200 198 183 159 138 100 73 63 338 21 90 357 223 141 119 162 220 188 139 208 203 206 213 151 138 137 123 176 214 158 153 155 145 269 242 225 203 216 216 191 198 171 167 169
182 183 179 177 176 174 174 174 174 174 172 173 174 172 178 181 177 178 182 184 184 185 184 185 188 187 182 176 176 170 137 69 252 213 211 213 213 217 221 224 205 195 198 186 171 167 161 146 108 66 71 84 360 49 95 315 80 106 119 178 182 152 126 187 212 209 180 115 120 129 143 183 165 133 154 158 178 233 237 230 216 215 195 174 174 173 170 173
180 179 178 178 174 174 175 173 174 173 171 172 171 175 180 177 175 177 180 182 182 182 181 181 183 181 177 172 173 166 148 179 285 226 208 200 195 200 206 207 190 184 186 172 155 145 144 121 89 98 74 75 110 117 162 300 39 118 249 177 180 190 117 170 214 206 165 122 136 154 171 145 123 182 165 176 211 224 220 238 239 231 186 163 158 166 171 178
178 177 178 178 174 176 176 172 172 171 171 171 169 177 180 174 175 178 177 180 180 178 176 175 175 174 170 166 165 153 165 259 309 270 201 187 184 185 187 191 179 178 182 167 151 136 129 107 116 145 93 83 155 141 153 37 42 96 156 165 175 213 61 278 229 171 155 142 170 170 137 127 156 190 91 217 234 228 239 276 270 207 161 153 154 171 180 184
176 178 178 176 176 177 174 172 172 171 173 172 170 174 173 170 174 174 174 177 178 175 173 169 167 167 166 162 149 113 255 258 305 153 170 169 175 172 172 179 174 178 182 174 166 150 139 133 154 159 95 120 157 124 143 94 43 82 149 166 132 53 345 334 67 106 140 149 160 122 120 173 189 164 117 245 246 247 259 317 101 127 142 161 167 182 189 190
176 179 179 175 176 177 174 173 172 173 174 171 170 169 165 165 168 170 171 174 174 174 169 163 162 162 164 157 121 126 227 242 243 173 154 165 172 168 168 175 176 180 179 181 180 160 159 163 182 184 143 165 129 120 160 123 255 163 130 135 119 43 338 31 77 72 111 130 108 129 110 324 212 162 268 252 255 273 268 104 128 134 151 189 185 189 192 194
178 180 181 178 176 176 175 173 173 173 172 169 166 161 160 162 162 165 168 170 172 172 166 160 159 158 160 147 107 168 232 249 224 208 166 168 172 172 172 176 178 182 173 171 178 164 170 183 178 163 135 123 107 111 150 135 171 137 111 105 90 42 333 29 95 35 12 87 58 150 146 320 313 296 262 253 288 306 126 122 166 163 178 197 198 202 199 201
180 181 181 180 179 177 174 174 174 172 169 167 162 157 159 159 156 159 163 167 169 168 164 159 158 159 158 140 125 195 226 195 204 191 172 170 173 179 179 179 179 182 174 159 182 178 170 172 155 123 128 148 111 76 352 132 109 113 124 103 32 11 36 32 81 22 347 98 69 132 133 326 11 280 229 227 326 350 149 167 212 198 208 207 205 212 207 216
181 180 180 180 179 177 175 174 174 170 168 166 160 159 161 157 151 155 158 161 165 165 163 159 159 159 146 117 157 198 191 167 185 169 169 168 171 180 176 177 178 181 179 164 186 186 166 167 142 96 163 149 122 108 144 110 91 109 119 112 359 5 44 10 47 324 342 117 261 122 104 298 227 231 231 231 343 37 142 196 234 223 238 235 221 224 217 223
182 180 179 178 178 177 175 174 172 169 168 165 159 161 167 163 149 150 154 158 162 162 163 160 159 156 136 102 202 198 191 171 178 168 165 165 167 171 169 172 171 171 179 170 177 177 166 169 139 105 122 111 119 169 121 65 63 111 73 101 47 16 3 329 359 316 71 127 302 162 197 270 244 249 248 314 345 26 163 228 240 241 248 253 242 236 231 225
182 180 178 177 177 178 175 172 170 169 168 166 160 160 165 161 151 150 152 154 155 158 162 159 156 150 138 186 199 192 199 185 178 172 165 169 157 148 153 164 166 166 167 158 159 154 154 152 120 101 103 90 132 125 62 26 26 91 71 64 74 127 253 304 351 353 138 192 333 120 197 268 263 266 263 325 343 159 249 256 255 261 258 256 248 242 243 231
181 179 177 177 177 177 174 170 169 169 168 164 160 160 161 157 153 148 146 147 146 154 156 153 155 143 113 254 204 174 189 181 175 178 175 172 155 138 143 152 153 152 145 138 135 131 138 132 101 89 78 12 107 97 48 23 22 41 103 321 357 164 249 313 1 66 148 252 15 105 207 271 268 268 271 344 62 154 229 263 278 277 268 261 252 244 247 246
181 179 177 176 177 176 171 168 167 167 164 160 158 159 154 149 150 143 141 141 139 147 148 149 162 149 111 170 146 151 178 179 173 175 174 173 168 149 136 132 125 125 125 120 121 118 108 98 76 92 116 73 97 101 71 42 7 357 94 177 245 171 254 317 14 354 5 192 360 93 217 267 277 271 279 334 77 112 242 274 282 277 270 262 249 244 242 253
179 178 177 176 176 174 170 166 164 162 160 159 158 152 141 136 140 136 129 126 128 136 139 152 167 149 95 118 128 161 178 166 165 166 166 172 174 153 134 114 102 114 113 110 116 105 60 55 57 227 70 71 107 101 89 57 262 301 48 113 218 187 198 291 276 327 11 107 243 354 236 245 266 281 284 286 185 105 283 270 275 274 269 261 249 251 246 246
177 177 175 174 176 174 169 165 161 160 159 155 151 136 124 120 122 123 119 116 113 106 108 138 144 124 235 180 155 186 156 148 152 154 155 155 160 154 137 113 115 114 101 89 92 70 31 30 67 111 47 49 118 115 142 200 191 181 167 140 201 218 209 258 246 272 13 65 222 293 262 257 274 282 279 272 206 233 266 263 271 273 267 262 251 247 245 243
175 174 172 173 175 171 168 164 159 160 156 146 137 121 110 105 104 111 113 112 109 101 130 177 146 142 205 208 159 120 120 135 140 139 141 142 149 143 116 110 113 100 101 98 59 67 79 59 69 127 138 158 179 167 175 193 171 165 172 145 151 178 229 247 252 271 340 124 236 239 249 268 277 279 281 275 186 214 269 279 273 266 261 260 251 244 243 240
174 171 171 172 172 170 166 162 159 160 153 144 138 123 112 109 98 95 67 69 141 142 170 177 151 130 131 118 120 120 116 118 121 129 140 148 145 123 78 72 73 55 96 142 134 104 96 121 170 182 181 191 191 165 140 149 138 134 130 117 148 168 222 250 264 297 316 159 250 251 269 278 268 268 274 275 263 251 267 273 268 262 255 251 245 248 244 237
173 170 171 171 170 168 165 162 159 159 154 151 147 132 146 157 129 160 181 325 237 62 39 148 125 84 110 132 137 135 117 78 57 96 142 154 148 136 49 15 100 68 329 168 132 83 93 155 207 205 183 172 155 129 108 100 89 95 133 142 171 190 205 242 243 306 342 184 268 353 319 278 264 265 269 272 278 259 246 246 255 257 254 249 242 248 248 249
172 171 171 169 168 165 163 161 159 161 161 160 155 129 203 156 126 146 143 115 252 25 28 69 97 43 25 129 149 143 92 77 83 14 157 146 133 157 153 65 121 144 262 147 108 86 119 212 230 207 152 108 88 95 94 89 89 85 113 133 175 226 225 266 269 326 1 166 269 352 336 282 270 265 261 257 252 248 241 235 245 253 256 256 245 246 254 265
170 170 171 169 166 162 161 160 162 167 167 168 171 167 158 133 129 138 122 95 151 1 28 84 145 135 58 132 172 140 92 118 158 241 210 140 112 162 130 96 122 134 158 168 144 143 179 252 242 178 136 109 83 72 95 88 82 95 110 130 188 243 186 225 264 332 4 82 259 326 315 286 284 282 268 259 255 265 268 257 253 248 250 256 257 258 257 257
170 169 170 170 164 158 159 160 164 170 170 175 187 167 136 132 139 139 100 79 139 304 297 223 178 163 149 171 177 146 107 133 164 185 198 143 131 143 129 126 127 122 170 170 141 148 187 261 163 131 121 118 113 102 121 119 87 132 152 144 169 197 176 196 258 346 357 28 38 13 318 293 304 313 283 286 324 298 292 296 279 256 246 259 271 268 252 247
170 169 170 168 161 155 156 156 161 171 169 177 191 165 131 135 146 138 93 78 133 327 306 250 191 192 176 129 166 163 124 123 177 199 193 143 139 135 122 127 127 146 179 127 116 142 217 267 127 122 101 103 122 154 177 157 152 244 218 177 170 169 159 149 74 65 39 357 1 22 327 287 315 312 272 297 342 306 300 306 280 268 265 263 265 265 256 250
171 170 170 166 159 153 152 151 164 167 164 190 191 162 142 142 145 138 92 61 297 278 201 178 144 177 172 131 159 149 115 152 253 19 118 132 133 117 122 102 59 153 175 132 123 155 204 344 84 123 127 116 126 187 215 161 138 211 231 169 142 131 130 135 123 90 93 255 335 47 161 263 312 297 268 312 331 301 298 284 270 272 278 262 256 270 276 268
172 171 168 164 159 156 151 140 159 161 155 207 186 162 153 150 142 132 78 48 291 222 140 186 340 157 169 179 159 140 151 198 130 56 68 108 72 63 119 167 101 141 179 122 144 221 116 73 70 99 107 122 143 205 218 152 131 216 230 133 126 126 136 143 117 97 185 231 330 19 113 239 296 272 272 331 327 304 306 288 278 284 281 273 264 270 275 273
174 171 167 163 162 164 161 143 152 164 171 179 173 163 156 150 140 108 85 86 258 145 130 219 111 132 145 21 82 110 196 186 126 177 334 74 90 45 99 176 148 138 157 126 182 259 102 144 166 129 111 152 181 231 212 152 130 244 210 126 127 128 129 124 99 93 71 4 302 319 53 204 268 274 306 350 325 298 294 279 282 299 297 297 292 284 281 277
173 170 166 162 162 165 164 151 158 176 181 163 167 166 155 149 141 84 86 151 191 76 128 144 120 120 64 67 58 49 37 37 116 204 331 72 76 50 108 178 134 118 68 97 163 232 70 178 188 144 140 183 185 333 269 151 134 187 147 102 83 81 84 84 91 99 58 28 240 264 5 192 263 282 303 352 279 258 266 271 278 286 287 290 292 294 300 299
171 169 165 161 158 153 146 149 170 178 171 163 167 164 149 142 129 103 133 213 149 80 300 132 169 164 124 130 44 358 76 38 17 107 30 64 41 35 99 147 102 107 46 42 97 230 330 267 193 116 146 170 138 71 39 70 126 139 124 82 67 44 38 53 56 79 71 302 252 253 302 186 269 280 251 214 223 217 237 284 294 291 295 290 280 287 301 312
171 168 166 163 159 152 140 148 187 176 160 161 162 156 137 98 73 132 184 217 126 85 71 141 206 141 149 160 170 194 92 40 295 132 130 151 52 54 117 114 73 76 39 45 54 331 2 39 21 90 118 122 104 69 44 44 92 103 101 97 87 12 12 28 1 42 120 252 260 265 295 177 229 259 249 244 254 227 213 270 287 291 301 296 290 299 303 309
169 167 167 166 163 160 156 168 179 167 156 158 155 144 118 98 134 187 191 177 152 189 177 176 201 168 167 166 145 152 125 73 224 153 144 152 139 149 155 168 153 91 50 183 145 342 29 72 270 32 109 145 118 80 38 353 16 70 109 115 103 13 20 7 312 332 213 243 266 276 245 213 235 249 259 263 264 240 211 230 249 263 279 284 295 311 314 316
166 164 165 167 164 165 169 163 163 163 159 157 149 91 86 128 197 206 190 179 196 201 152 131 134 146 149 146 147 167 119 105 191 155 119 133 149 175 186 169 152 123 180 180 129 125 275 306 299 114 226 202 145 128 126 250 264 126 144 134 131 121 99 231 259 284 256 254 293 291 242 257 273 265 248 250 257 240 200 222 234 244 261 271 291 307 309 309
164 162 161 164 164 168 171 157 161 165 159 154 146 103 125 165 204 196 186 207 225 61 87 105 107 117 134 146 190 179 103 36 178 122 93 130 144 182 211 214 171 107 112 146 150 163 181 264 228 164 206 180 165 174 152 143 138 166 171 133 149 160 151 199 209 197 232 259 308 298 241 207 217 272 242 238 264 285 240 241 254 258 263 271 292 300 296 297
163 162 159 161 164 166 164 158 165 166 157 147 150 154 168 190 204 193 185 190 189 97 59 93 115 126 152 53 316 197 139 146 176 111 142 168 169 186 186 195 198 141 126 158 197 166 165 241 264 285 272 155 167 219 122 109 116 227 126 102 164 186 138 139 178 173 169 136 290 251 239 218 212 280 279 247 266 280 267 280 289 270 276 294 293 291 293 295
160 160 159 161 163 159 155 161 166 166 158 144 158 175 194 202 194 187 171 148 153 137 107 81 87 120 166 76 293 221 145 115 159 138 180 199 197 192 185 189 191 181 167 160 165 158 155 255 312 342 341 93 167 213 107 115 168 160 126 165 211 169 112 115 192 54 83 185 256 218 256 291 321 293 294 315 299 277 258 266 275 271 291 305 283 285 293 291
154 154 155 160 166 160 155 162 163 161 158 157 176 188 205 207 180 144 144 127 139 139 123 131 148 133 163 166 194 206 168 113 154 156 185 204 226 194 190 207 191 188 194 162 160 197 155 139 331 26 100 351 219 133 61 36 111 123 174 203 186 120 96 113 153 15 43 233 272 287 245 288 325 280 312 350 327 286 251 236 262 299 319 297 280 286 280 277
145 140 141 163 174 169 159 163 160 152 143 165 191 205 204 199 180 133 142 134 134 140 137 159 171 137 167 179 187 190 172 160 171 172 176 197 250 202 179 192 195 190 198 146 138 197 129 121 319 5 147 295 351 102 94 20 48 117 183 175 115 141 173 100 138 165 121 233 277 301 281 265 214 228 294 298 262 268 274 277 294 294 303 289 279 285 275 281
139 129 137 174 178 175 163 160 153 139 157 179 197 215 189 161 209 197 169 140 126 133 154 175 164 116 169 174 163 173 182 178 171 176 181 186 245 220 177 179 187 185 185 141 148 180 113 129 223 283 230 276 25 130 178 183 20 35 92 100 78 132 164 156 152 166 173 200 253 309 323 268 225 214 215 238 249 250 260 288 262 243 259 249 247 264 272 289
140 131 175 178 181 175 158 151 140 148 190 191 196 204 134 108 206 255 231 156 124 132 166 179 165 141 159 164 152 168 180 174 171 185 201 184 208 236 200 186 162 166 158 104 126 157 99 130 171 266 315 181 169 211 190 172 151 111 122 157 173 71 116 163 97 113 141 163 186 264 297 269 249 210 192 224 252 240 231 247 205 207 242 253 248 256 269 285
150 150 151 176 179 167 150 144 152 177 192 211 190 165 115 131 143 161 300 97 110 135 147 148 149 147 149 152 167 170 152 150 177 191 218 201 203 225 216 184 156 150 133 102 138 166 142 140 151 148 196 194 223 254 194 174 166 161 170 183 178 147 125 154 246 249 117 138 168 171 257 267 254 208 198 218 243 240 231 233 219 209 226 250 260 257 264 277
161 173 153 174 176 165 150 154 178 157 190 220 181 142 126 125 121 145 172 73 84 81 89 109 126 140 151 153 157 162 153 156 184 190 214 217 209 218 221 162 146 153 153 143 161 166 129 109 115 146 207 212 252 303 159 182 154 153 193 190 167 159 141 153 207 222 121 115 149 112 259 270 262 203 206 225 246 262 252 238 247 244 220 233 259 265 265 261
161 140 139 170 175 169 156 163 161 161 220 233 177 50 79 106 109 144 171 128 105 100 78 98 133 141 168 157 140 161 169 169 189 198 214 221 216 225 187 148 145 156 156 143 154 158 127 115 115 112 304 316 327 354 35 33 99 173 231 189 161 180 149 147 182 170 139 168 140 87 277 269 280 276 218 240 261 279 274 244 245 274 286 271 263 268 287 274
162 96 100 166 176 177 172 177 178 180 195 29 79 79 56 71 114 141 167 169 157 141 123 135 161 147 162 150 137 167 182 177 197 208 209 189 209 231 161 162 161 163 173 183 176 174 186 162 131 115 43 5 350 351 343 307 220 199 217 167 147 127 100 101 117 99 122 206 156 141 241 253 282 315 313 304 310 304 287 259 225 244 287 295 258 231 58 26
106 90 28 145 170 179 184 184 173 171 167 130 134 146 121 66 74 146 152 142 144 156 141 151 162 109 119 141 118 154 184 177 172 200 201 193 227 346 147 184 182 176 204 232 156 160 181 176 149 153 168 183 195 203 217 217 189 187 176 153 158 146 136 146 123 106 222 227 158 173 231 238 328 338 334 328 329 309 281 271 245 232 251 272 262 165 60 35
80 101 181 92 58 92 116 49 118 154 170 155 146 167 150 120 43 301 116 120 149 127 99 91 138 95 96 146 130 156 197 194 88 165 190 194 215 314 283 197 194 199 293 123 144 145 142 180 188 187 195 201 201 203 170 123 143 186 179 165 173 172 161 145 114 161 201 171 159 220 236 242 263 272 241 258 278 270 266 276 283 271 260 256 245 281 332 323
79 187 161 120 65 97 89 63 114 128 169 169 162 181 157 127 123 102 65 112 162 124 71 55 143 147 157 161 151 175 198 193 117 154 180 182 195 315 351 143 178 272 349 148 163 131 100 200 208 201 214 218 197 186 160 134 162 186 170 164 175 173 163 154 180 208 171 114 232 237 228 242 243 191 210 246 245 251 266 265 269 272 261 254 257 324 318 297
241 12 303 34 74 161 134 151 136 110 140 163 145 146 154 147 153 158 114 45 91 117 104 73 229 198 178 169 160 164 178 179 189 186 155 147 157 101 32 62 183 253 41 139 179 118 130 208 209 194 221 231 164 139 176 159 163 177 168 171 174 169 174 182 205 216 167 160 239 232 185 230 239 186 202 229 211 216 235 237 250 258 254 272 343 314 293 276
110 61 321 355 27 81 109 133 132 119 136 152 134 146 165 171 174 165 110 91 51 284 144 161 219 205 184 177 160 160 174 178 201 210 174 151 158 132 105 113 220 228 102 135 185 143 158 212 195 175 219 238 181 145 184 162 143 167 178 179 175 174 185 193 208 219 199 205 238 228 170 240 243 187 204 227 213 215 219 212 267 259 251 257 256 253 253 255
146 160 215 52 50 73 98 124 136 135 135 147 179 191 173 180 183 175 138 143 162 205 174 180 192 159 161 180 152 170 195 177 188 202 174 156 171 173 175 183 171 126 122 156 178 192 200 220 159 144 207 248 202 161 183 162 150 173 183 184 183 182 194 204 212 218 209 220 244 248 257 267 252 160 199 229 221 226 228 221 241 244 242 236 233 240 239 246
118 140 132 111 99 130 134 129 135 143 153 178 191 183 178 192 184 165 180 196 162 173 173 167 155 113 108 154 133 185 213 169 169 188 172 166 180 179 192 190 161 150 165 178 165 164 187 205 76 118 183 247 211 167 166 108 95 148 193 188 192 192 201 210 212 209 194 209 236 244 253 261 234 152 200 219 188 215 235 228 232 240 238 231 231 240 243 251
117 113 117 104 98 159 147 132 142 157 171 183 180 157 161 184 163 152 186 266 193 175 160 152 151 123 109 166 176 196 179 137 131 151 143 132 119 104 97 129 141 152 166 169 153 153 166 161 127 151 184 256 282 150 140 98 84 253 235 203 197 199 204 206 217 229 205 196 212 218 232 247 221 149 209 215 164 205 231 223 223 235 239 237 235 238 250 278